Meteopurmerend
purmerend
Purmerend - Baaienwijk



My webcam  My webcam


Onweer radar Meer informatie blitzortung!


Regen radar Meer informatie rain snow radar


Bezoek onze andere website:

CandyAppleRed WebdesignWebdesign Purmerend Candy Apple Red

MeteopurmerendBlog

Template documentation
and downloads



Het weer levert geen direct gevaar op.    Er zijn geen waarschuwingen afgegeven.

15 daagse weersverwachting Droichead Nua (IE)

  • Overzicht
  • Per uur
  • 15 dagen
  • Extra
  • Vergelijk
  • Kaarten
  • Dagkaart
  • Meer »
  • Info
  • Statistieken
  • Directe link
    Temp 6h Neerslag Wind  
 07:27     16:56    Daglengte: 9:29 Vandaag
12:00
10°
9.3 mm
12
18:00
2.5 mm
7
 07:29     16:54    Daglengte: 9:25 Morgen
00:00
3.9 mm
9
06:00
10°
16.8 mm
9
12:00
11°
4.2 mm
8
18:00
11°
21.6 mm
5
 07:31     16:52    Daglengte: 9:21 Maandag 02 Nov
00:00
41.8 mm
5
06:00
22.5 mm
6
12:00
 
6
18:00
24.7 mm
7
 07:32     16:50    Daglengte: 9:18 Dinsdag 03 Nov
00:00
 
5
Locatie info
Region: Leinster
Latitude: 53.1819°N
Longitude: -6.7967°E
92 masl
Temp/Neerslag /Baro Onweer/Dauwpunt
    Temp Baro 1h Neerslag Dauwpunt Wind UV Bewolking  
 07:27     16:56    Daglengte: 9:29 Vandaag
07:00
14°
989.2 hPa 4.5 mm
48%
13.2°
14
Windvlaag: 11.9 m/s
89%
08:00
15°
988.3 hPa 2.2 mm
82%
12.8°
14
Windvlaag: 11.9 m/s
89%
09:00
12°
990.1 hPa 2.5 mm
82%
9.2°
13
Windvlaag: 10.9 m/s
52%
10:00
11°
991.9 hPa
36%
6.7°
11
Windvlaag: 5.3 m/s
50%
11:00
10°
993.9 hPa
38%
5.7°
12
Windvlaag: 6.5 m/s
39%
12:00
10°
995.7 hPa
82%
4.8°
12
Windvlaag: 5.9 m/s
44%
13:00
10°
997.4 hPa
75%
4.7°
12
Windvlaag: 5.8 m/s
44%
14:00
10°
999.0 hPa
67%
4.1°
11
Windvlaag: 5.7 m/s
31%
15:00
10°
Voelt als: 5.5°
1000.5 hPa 2.5 mm
34%
3.6°
10
Windvlaag: 4.9 m/s
34%
16:00
Voelt als: 5.3°
1001.5 hPa
65%
3.4°
9
Windvlaag: 4.3 m/s
19%
17:00
Voelt als: 4.7°
1002.2 hPa
30%
3.1°
8
Windvlaag: 4.2 m/s
59%
18:00
Voelt als: 4.4°
1003.0 hPa
18%
2.5°
7
Windvlaag: 3.9 m/s
76%
19:00
Voelt als: 4.3°
1003.2 hPa
14%
2.0°
6
Windvlaag: 4.4 m/s
86%
20:00
Voelt als: 4.2°
1002.7 hPa
14%
1.9°
6
Windvlaag: 4.7 m/s
88%
21:00
Voelt als: 4.3°
1002.0 hPa
18%
1.8°
6
Windvlaag: 5.4 m/s
72%
22:00
Voelt als: 4.1°
1000.9 hPa
18%
2.6°
7
Windvlaag: 6.2 m/s
84%
23:00
Voelt als: 3.5°
999.1 hPa
14%
4.6°
7
Windvlaag: 7.1 m/s
85%
 07:29     16:54    Daglengte: 9:25 Morgen
00:00
Voelt als: 3.4°
996.8 hPa 3.9 mm
24%
6.0°
9
Windvlaag: 8.9 m/s
90%
01:00
Voelt als: 3.7°
994.1 hPa 3.1 mm
82%
6.0°
11
Windvlaag: 10.3 m/s
91%
02:00
Voelt als: 4.3°
991.2 hPa 3.0 mm
82%
7.1°
12
Windvlaag: 10.7 m/s
87%
03:00
10°
989.3 hPa 4.3 mm
82%
9.1°
12
Windvlaag: 10.8 m/s
86%
04:00
11°
988.9 hPa 3.4 mm
82%
9.9°
11
Windvlaag: 9.9 m/s
85%
05:00
11°
989.8 hPa 2.9 mm
82%
7.7°
10
Windvlaag: 9.6 m/s
82%
06:00
10°
991.5 hPa
82%
6.2°
9
Windvlaag: 7.2 m/s
58%
07:00
Voelt als: 5.6°
992.6 hPa
38%
4.4°
8
Windvlaag: 4.7 m/s
54%
08:00
Voelt als: 5.4°
993.5 hPa
58%
3.9°
7
Windvlaag: 5 m/s
40%
09:00
Voelt als: 5.7°
994.2 hPa
16%
3.7°
8
Windvlaag: 6.2 m/s
31%
10:00
10°
Voelt als: 6.4°
994.3 hPa
18%
4.4°
8
Windvlaag: 8.2 m/s
26%
11:00
11°
994.2 hPa
82%
4.8°
9
Windvlaag: 8.4 m/s
71%
12:00
11°
993.8 hPa 4.2 mm
82%
5.8°
8
Windvlaag: 8.3 m/s
81%
13:00
11°
992.7 hPa 2.9 mm
80%
6.6°
8
Windvlaag: 7.3 m/s
87%
14:00
11°
991.6 hPa 3.4 mm
82%
7.2°
7
Windvlaag: 6.6 m/s
91%
15:00
11°
989.8 hPa 3.5 mm
82%
8.4°
6
Windvlaag: 7.4 m/s
91%
16:00
11°
988.7 hPa 4.5 mm
82%
9.7°
7
Windvlaag: 7.3 m/s
91%
17:00
11°
987.0 hPa 3.6 mm
82%
9.9°
6
Windvlaag: 7.2 m/s
91%
18:00
11°
986.3 hPa 3.7 mm
82%
10.0°
5
Windvlaag: 6.6 m/s
91%
19:00
11°
986.0 hPa 4.1 mm
82%
10.0°
5
Windvlaag: 7.7 m/s
91%
20:00
11°
986.2 hPa 6.4 mm
78%
10.1°
5
Windvlaag: 8.8 m/s
89%
21:00
11°
986.2 hPa 7.8 mm
39%
9.8°
6
Windvlaag: 9 m/s
82%
22:00
10°
986.5 hPa 7.7 mm
18%
9.2°
5
Windvlaag: 0.5 m/s
81%
23:00
10°
Voelt als: 7.0°
986.6 hPa 8.0 mm
14%
8.6°
5
Windvlaag: 2 m/s
81%
 07:31     16:52    Daglengte: 9:21 Maandag 02 Nov
00:00
Voelt als: 6.3°
987.0 hPa 7.8 mm
14%
7.9°
5
Windvlaag: 2 m/s
81%
01:00
Voelt als: 6.2°
987.7 hPa 7.5 mm
14%
7.2°
5
Windvlaag: 3.2 m/s
77%
02:00
Voelt als: 5.3°
988.4 hPa 7.7 mm
14%
6.9°
5
Windvlaag: 4.5 m/s
75%
03:00
Voelt als: 4.4°
988.4 hPa
38%
6.7°
7
Windvlaag: 4.9 m/s
85%
04:00
Voelt als: 4.1°
989.4 hPa 7.3 mm
31%
5.8°
6
Windvlaag: 5.1 m/s
82%
05:00
Voelt als: 3.8°
990.4 hPa
35%
5.3°
6
Windvlaag: 4.8 m/s
80%
06:00
Voelt als: 3.8°
991.5 hPa
32%
5.2°
6
Windvlaag: 4.7 m/s
71%
07:00
Voelt als: 3.6°
992.6 hPa
29%
5.2°
6
Windvlaag: 4.7 m/s
36%
08:00
Voelt als: 2.8°
994.0 hPa
31%
4.3°
6
Windvlaag: 5.3 m/s
53%
09:00
Voelt als: 3.8°
995.1 hPa
24%
4.3°
6
Windvlaag: 4.4 m/s
75%
10:00
Voelt als: 4.6°
995.9 hPa
26%
4.6°
5
Windvlaag: 3.7 m/s
64%
11:00
Voelt als: 5.2°
996.9 hPa
23%
5.5°
7
Windvlaag: 4 m/s
78%
12:00
Voelt als: 5.9°
998.1 hPa
94%
5.5°
6
Windvlaag: 2.8 m/s
61%
13:00
10°
Voelt als: 6.8°
999.0 hPa
95%
4.2°
7
Windvlaag: 3.1 m/s
49%
14:00
Voelt als: 5.5°
1000.0 hPa 7.2 mm
95%
4.3°
7
Windvlaag: 3.4 m/s
70%
15:00
Voelt als: 4.6°
1001.1 hPa 7.3 mm
98%
4.3°
7
Windvlaag: 3.9 m/s
77%
16:00
Voelt als: 4.4°
1002.3 hPa 10.2 mm
99%
5.1°
7
Windvlaag: 3.1 m/s
82%
17:00
Voelt als: 3.4°
1004.0 hPa
82%
4.7°
7
Windvlaag: 2.5 m/s
54%
18:00
Voelt als: 2.6°
1005.7 hPa
37%
4.4°
7
Windvlaag: 2.5 m/s
81%
19:00
Voelt als: 2.2°
1006.9 hPa
22%
3.8°
6
Windvlaag: 5.9 m/s
41%
20:00
Voelt als: 1.7°
1008.2 hPa
21%
3.3°
6
Windvlaag: 7.4 m/s
55%
21:00
Voelt als: 1.5°
1009.3 hPa
24%
2.9°
6
Windvlaag: 8 m/s
77%
22:00
Voelt als: 1.1°
1010.4 hPa
24%
2.5°
6
Windvlaag: 8.6 m/s
81%
23:00
Voelt als: 0.7°
1011.5 hPa
21%
2.1°
6
Windvlaag: 8.3 m/s
77%
 07:32     16:50    Daglengte: 9:18 Dinsdag 03 Nov
00:00
Voelt als: 0.5°
1012.4 hPa
21%
1.6°
5
Windvlaag: 4.5 m/s
49%
01:00
Voelt als: 0.8°
1012.8 hPa
21%
2.0°
5
Windvlaag: 10.5 m/s
51%
02:00
Voelt als: 0.8°
1013.1 hPa
21%
2.0°
5
Windvlaag: 10.8 m/s
50%
03:00
Voelt als: 1.0°
1013.3 hPa
21%
2.3°
6
Windvlaag: 12.8 m/s
79%
04:00
Voelt als: 1.7°
1013.6 hPa
22%
2.8°
5
Windvlaag: 10.8 m/s
74%
05:00
Voelt als: 1.7°
1014.0 hPa
24%
2.8°
6
Windvlaag: 11.6 m/s
60%
Temp/Neerslag /Baro Onweer/Dauwpunt
    Temp Baro Neerslag Dauwpunt Wind Bewolking  
 07:27     16:56    Daglengte: 9:29 Vandaag
09:00
12°
990.1 hPa 9.3 mm 9.2°
13
52%
12:00
10°
995.7 hPa   4.8°
12
44%
15:00
10°
Voelt als: 5.5°
1000.5 hPa 2.5 mm 3.6°
10
34%
18:00
Voelt als: 4.4°
1003.0 hPa   2.5°
7
76%
21:00
Voelt als: 4.3°
1002.0 hPa   1.8°
6
72%
 07:29     16:54    Daglengte: 9:25 Morgen
00:00
Voelt als: 3.4°
996.8 hPa 3.9 mm 6.0°
9
90%
03:00
10°
989.3 hPa 10.5 mm 9.1°
12
86%
06:00
10°
991.5 hPa 6.3 mm 6.2°
9
58%
09:00
Voelt als: 5.7°
994.2 hPa   3.7°
8
31%
12:00
11°
993.8 hPa 4.2 mm 5.8°
8
81%
15:00
11°
989.8 hPa 9.8 mm 8.4°
6
91%
18:00
11°
986.3 hPa 11.8 mm 10.0°
5
91%
21:00
11°
986.2 hPa 18.3 mm 9.8°
6
82%
 07:31     16:52    Daglengte: 9:21 Maandag 02 Nov
00:00
Voelt als: 6.3°
987.0 hPa 23.5 mm 7.9°
5
81%
03:00
Voelt als: 4.4°
988.4 hPa 15.2 mm 6.7°
7
85%
06:00
Voelt als: 3.8°
991.5 hPa 7.3 mm 5.2°
6
71%
09:00
Voelt als: 3.8°
995.1 hPa   4.3°
6
75%
12:00
Voelt als: 5.9°
998.1 hPa   5.5°
6
61%
15:00
Voelt als: 4.6°
1001.1 hPa 14.5 mm 4.3°
7
77%
18:00
Voelt als: 2.6°
1005.7 hPa 10.2 mm 4.4°
7
81%
21:00
Voelt als: 1.5°
1009.3 hPa   2.9°
6
77%
 07:32     16:50    Daglengte: 9:18 Dinsdag 03 Nov
00:00
Voelt als: 0.5°
1012.4 hPa   1.6°
5
49%
03:00
Voelt als: 1.0°
1013.3 hPa   2.3°
6
79%
06:00
Voelt als: 1.7°
1014.4 hPa   2.7°
6
76%
09:00
Voelt als: 4.0°
1017.7 hPa 36.3 mm 3.0°
6
82%
12:00
Voelt als: 4.9°
1019.9 hPa 36.4 mm 2.9°
7
85%
15:00
Voelt als: 4.3°
1021.9 hPa 36.6 mm 3.1°
5
58%
18:00
Voelt als: 3.6°
1023.9 hPa 36.8 mm 3.2°
4
31%
21:00
Voelt als: 2.9°
1025.6 hPa 38.0 mm 3.4°
3
28%
 07:34     16:48    Daglengte: 9:14 Woensdag 04 Nov
00:00
Voelt als: 2.1°
1027.4 hPa 38.0 mm 3.4°
3
25%
03:00
Voelt als: 1.4°
1029.3 hPa 38.0 mm 2.7°
2
13%
06:00
Voelt als: 0.8°
1031.4 hPa 38.0 mm 1.9°
2
0%
09:00
Voelt als: 4.0°
1033.9 hPa 38.0 mm 3.1°
2
0%
12:00
Voelt als: 7.3°
1036.4 hPa 38.0 mm 4.2°
2
0%
15:00
Voelt als: 5.0°
1037.5 hPa 38.1 mm 3.6°
2
0%
18:00
Voelt als: 2.4°
1038.6 hPa 38.2 mm 2.7°
2
0%
21:00
Voelt als: 0.4°
1039.9 hPa 38.2 mm 1.3°
2
0%
 07:36     16:46    Daglengte: 9:10 Donderdag 05 Nov
00:00
Voelt als: -1.6°
1041.2 hPa 38.2 mm -0.1°
2
0% warningclass
03:00
Voelt als: -1.2°
1041.3 hPa 38.2 mm 0.1°
2
0% warningclass
06:00
Voelt als: -0.9°
1041.5 hPa 38.2 mm 0.4°
2
0%
09:00
Voelt als: 3.5°
1041.5 hPa 38.2 mm 2.4°
2
0%
12:00
Voelt als: 7.9°
1041.5 hPa 38.2 mm 4.3°
2
0%
15:00
Voelt als: 6.3°
1040.5 hPa 38.2 mm 3.9°
2
0%
18:00
Voelt als: 4.3°
1039.7 hPa 38.2 mm 3.1°
1
0%
21:00
Voelt als: 1.9°
1038.8 hPa 38.2 mm 1.5°
1
0%
 07:38     16:44    Daglengte: 9:06 Vrijdag 06 Nov
00:00
Voelt als: -0.4°
1038.0 hPa 38.2 mm -0.1°
1
0% warningclass
03:00
Voelt als: -1.4°
1036.4 hPa 38.2 mm -0.8°
2
0% warningclass
06:00
-0°
Voelt als: -2.4°
1034.9 hPa 38.2 mm -1.6°
2
0% warningclass
09:00
Voelt als: 3.8°
1033.7 hPa 38.2 mm 1.7°
1
0%
12:00
10°
1032.4 hPa 38.2 mm 4.8°
1
0%
15:00
Voelt als: 5.8°
1030.4 hPa 38.2 mm 2.6°
2
0%
18:00
Voelt als: 1.1°
1028.6 hPa 38.2 mm -0.0°
2
0%
21:00
Voelt als: -0.3°
1027.5 hPa 38.2 mm -0.5°
2
0%
 07:40     16:43    Daglengte: 9:03 Zaterdag 07 Nov
00:00
Voelt als: -1.6°
1026.5 hPa 38.2 mm -0.9°
2
1% warningclass
03:00
Voelt als: -1.0°
1025.5 hPa 38.2 mm -0.2°
2
20%
06:00
Voelt als: -0.4°
1024.5 hPa 76.3 mm 0.4°
2
39%
12:00
Voelt als: 8.7°
1023.3 hPa 76.3 mm 6.2°
2
91%
18:00
Voelt als: 6.4°
1021.4 hPa 76.3 mm 6.5°
2
92%
 07:42     16:41    Daglengte: 8:59 Zondag 08 Nov
00:00
Voelt als: 6.8°
1020.8 hPa 76.3 mm 7.0°
2
92%
06:00
10°
1019.4 hPa 76.3 mm 9.9°
3
92%
12:00
13°
1021.3 hPa 76.4 mm 10.6°
3
85%
18:00
11°
1022.1 hPa 76.4 mm 9.7°
1
92%
 07:44     16:39    Daglengte: 8:55 Maandag 09 Nov
00:00
Voelt als: 8.7°
1023.8 hPa 76.5 mm 8.4°
1
88%
06:00
Voelt als: 6.1°
1025.1 hPa 76.5 mm 7.0°
2
79%
12:00
Voelt als: 8.0°
1022.5 hPa 76.5 mm 4.5°
2
1%
18:00
Voelt als: 5.1°
1024.1 hPa 76.5 mm 3.1°
1
1%
 07:46     16:38    Daglengte: 8:52 Dinsdag 10 Nov
00:00
Voelt als: 3.0°
1026.8 hPa 76.5 mm 1.8°
0
0%
06:00
Voelt als: 6.6°
1015.3 hPa 0.7 mm 6.0°
2
84%
12:00
Voelt als: 8.4°
1016.0 hPa 0.7 mm 6.6°
2
75%
18:00
Voelt als: 6.1°
1015.8 hPa 0.3 mm 5.6°
2
74%
 07:48     16:36    Daglengte: 8:48 Woensdag 11 Nov
00:00
Voelt als: 5.2°
1016.0 hPa 0.4 mm 5.4°
2
67%
06:00
Voelt als: 5.3°
1014.7 hPa 0.3 mm 5.5°
3
78%
12:00
Voelt als: 7.3°
1014.7 hPa 0.4 mm 6.4°
3
79%
18:00
Voelt als: 5.9°
1014.6 hPa 0.8 mm 5.6°
2
75%
 07:49     16:34    Daglengte: 8:45 Donderdag 12 Nov
00:00
Voelt als: 4.7°
1015.3 hPa 0.5 mm 5.0°
3
72%
06:00
Voelt als: 4.7°
1014.6 hPa 0.4 mm 5.3°
3
72%
12:00
Voelt als: 7.3°
1015.1 hPa 0.7 mm 6.1°
3
75%
18:00
Voelt als: 5.4°
1015.2 hPa 0.5 mm 4.9°
2
73%
 07:51     16:33    Daglengte: 8:42 Vrijdag 13 Nov
00:00
Voelt als: 4.6°
1015.8 hPa 0.5 mm 4.4°
2
67%
06:00
Voelt als: 4.0°
1015.9 hPa 0.8 mm 4.0°
2
64%
12:00
Voelt als: 7.2°
1016.8 hPa 0.3 mm 5.2°
2
62%
18:00
Voelt als: 5.2°
1016.2 hPa 0.6 mm 5.2°
2
71%
 07:53     16:31    Daglengte: 8:38 Zaterdag 14 Nov
00:00
Voelt als: 4.7°
1016.3 hPa 0.4 mm 4.8°
2
72%
06:00
Voelt als: 5.1°
1015.7 hPa 0.4 mm 4.7°
2
74%
12:00
Voelt als: 7.7°
1015.9 hPa 0.3 mm 5.9°
2
77%
18:00
Voelt als: 6.9°
1015.6 hPa 0.8 mm 5.4°
1
82%
 07:55     16:30    Daglengte: 8:35 Zondag 15 Nov
00:00
Voelt als: 5.1°
1016.2 hPa 0.8 mm 4.3°
1
68%
06:00
Voelt als: 5.0°
1016.2 hPa 0.3 mm 3.7°
1
69%
  CAPE Lifted Index Hail Supercell Tornado SRH 3km CL BTM PRES CL TOP PRES Swiss DWD icon SMHI TS
 07:27     16:56    Daglengte: 9:29 Vandaag
07:00 0 J/kg 2.7 K 0 % 0 % 0 % 0 m²/s² 0 0 2.97 61
08:00 15 J/kg 1.1 K 0 % 0 % 0 % 0 m²/s² 0 0 1.34 61
09:00 141 J/kg 2.3 K 0 % 0 % 0 % 0 m²/s² 0 0 7.16 61
10:00 5 J/kg 6.1 K 0 % 0 % 0 % 0 m²/s² 0 0 6.61 2
11:00 40 J/kg 8.8 K 0 % 0 % 0 % 0 m²/s² 0 0 13.45 2
12:00 49 J/kg 7.9 K 0 % 0 % 0 % 0 m²/s² 0 0 15.46 2
13:00 60 J/kg 8.1 K 0 % 0 % 0 % 0 m²/s² 0 0 15.06 2
14:00 70 J/kg 8.6 K 0 % 0 % 0 % 0 m²/s² 0 0 18.23 2
15:00 75 J/kg 9.5 K 0 % 0 % 0 % 0 m²/s² 0 0 19.64 2
16:00 76 J/kg 11.1 K 0 % 0 % 0 % 0 m²/s² 0 0 20.82 2
17:00 76 J/kg 12.7 K 0 % 0 % 0 % 0 m²/s² 0 0 19.72 2
18:00 26 J/kg 14.0 K 0 % 0 % 0 % 0 m²/s² 0 0 19.91 2
19:00 14 J/kg 15.1 K 0 % 0 % 0 % 0 m²/s² 0 0 19 3
20:00 0 J/kg 16.3 K 0 % 0 % 0 % 0 m²/s² 0 0 18.61 3
21:00 0 J/kg 16.5 K 0 % 0 % 0 % 0 m²/s² 0 0 16.92 3
22:00 54 J/kg 15.8 K 0 % 0 % 0 % 0 m²/s² 0 0 16.1 3
23:00 22 J/kg 14.2 K 0 % 0 % 0 % 0 m²/s² 0 0 14.41 3
 07:29     16:54    Daglengte: 9:25 Morgen
00:00 9 J/kg 13.3 K 0 % 0 % 0 % 0 m²/s² 0 0 13.51 3
01:00 0 J/kg 8.1 K 0 % 0 % 0 % 0 m²/s² 0 0 8.28 61
02:00 0 J/kg 6.3 K 0 % 0 % 0 % 0 m²/s² 0 0 8.22 61
03:00 0 J/kg 4.6 K 0 % 0 % 0 % 0 m²/s² 0 0 8.62 61
04:00 103 J/kg 5.2 K 0 % 0 % 0 % 0 m²/s² 0 0 13.15 61
05:00 61 J/kg 10.8 K 0 % 0 % 0 % 0 m²/s² 0 0 20.58 61
06:00 25 J/kg 13.0 K 0 % 0 % 0 % 0 m²/s² 0 0 22.36 61
07:00 8 J/kg 14.5 K 0 % 0 % 0 % 0 m²/s² 0 0 22.15 2
08:00 7 J/kg 14.8 K 0 % 0 % 0 % 0 m²/s² 0 0 21.91 2
09:00 10 J/kg 14.8 K 0 % 0 % 0 % 0 m²/s² 0 0 20.38 2
10:00 19 J/kg 14.3 K 0 % 0 % 0 % 0 m²/s² 0 0 18.02 3
11:00 13 J/kg 15.3 K 0 % 0 % 0 % 0 m²/s² 0 0 17.55 3
12:00 28 J/kg 14.8 K 0 % 0 % 0 % 0 m²/s² 0 0 16.42 80
13:00 23 J/kg 14.9 K 0 % 0 % 0 % 0 m²/s² 0 0 15.89 61
14:00 24 J/kg 14.5 K 0 % 0 % 0 % 0 m²/s² 0 0 14.68 61
15:00 16 J/kg 13.3 K 0 % 0 % 0 % 0 m²/s² 0 0 13.39 55
16:00 5 J/kg 11.9 K 0 % 0 % 0 % 0 m²/s² 0 0 11.93 51
17:00 0 J/kg 9.9 K 0 % 0 % 0 % 0 m²/s² 0 0 9.93 53
18:00 0 J/kg 7.9 K 0 % 0 % 0 % 0 m²/s² 0 0 7.9 61
19:00 0 J/kg 3.2 K 0 % 0 % 0 % 0 m²/s² 0 0 3.2 61
20:00 0 J/kg 3.2 K 0 % 0 % 0 % 0 m²/s² 0 0 3.47 3
21:00 0 J/kg 3.3 K 0 % 0 % 0 % 0 m²/s² 0 0 3.3 2
22:00 0 J/kg 1.2 K 0 % 0 % 0 % 0 m²/s² 0 0 1.23 1
23:00 0 J/kg 1.3 K 0 % 0 % 0 % 0 m²/s² 0 0 1.3 1
 07:31     16:52    Daglengte: 9:21 Maandag 02 Nov
00:00 0 J/kg 1.7 K 0 % 0 % 0 % 0 m²/s² 0 0 1.91 0
01:00 0 J/kg 2.1 K 0 % 0 % 0 % 0 m²/s² 0 0 2.1 3
02:00 11 J/kg 2.7 K 0 % 0 % 0 % 0 m²/s² 0 0 4.65 3
03:00 47 J/kg 3.4 K 0 % 0 % 0 % 0 m²/s² 0 0 11.17 3
04:00 72 J/kg 4.0 K 0 % 0 % 0 % 0 m²/s² 0 0 10.15 3
05:00 48 J/kg 5.9 K 0 % 0 % 0 % 0 m²/s² 0 0 9.62 3
06:00 15 J/kg 5.1 K 0 % 0 % 0 % 0 m²/s² 0 0 5.49 3
07:00 29 J/kg 5.3 K 0 % 0 % 0 % 0 m²/s² 0 0 5.63 2
08:00 17 J/kg 8.7 K 0 % 0 % 0 % 0 m²/s² 0 0 9 2
09:00 7 J/kg 8.2 K 0 % 0 % 0 % 0 m²/s² 0 0 8.98 2
10:00 44 J/kg 4.9 K 0 % 0 % 0 % 0 m²/s² 0 0 5.41 2
11:00 110 J/kg 2.3 K 0 % 0 % 0 % 0 m²/s² 0 0 2.93 3
12:00 41 J/kg 1.7 K 0 % 0 % 0 % 0 m²/s² 0 0 2.39 3
13:00 64 J/kg 0.6 K 0 % 0 % 0 % 0 m²/s² 0 0 0.96 2
14:00 34 J/kg 0.9 K 0 % 0 % 0 % 0 m²/s² 0 0 1.38 2
15:00 27 J/kg 0.3 K 0 % 0 % 0 % 0 m²/s² 0 0 1.44 2
16:00 170 J/kg -0.3 K 0 % 0 % 0 % 0 m²/s² 0 0 1.14 2
17:00 246 J/kg -0.5 K 0 % 0 % 0 % 0 m²/s² 0 0 1.03 2
18:00 157 J/kg 0.0 K 0 % 0 % 0 % 0 m²/s² 0 0 4.35 3
19:00 44 J/kg 0.7 K 0 % 0 % 0 % 0 m²/s² 0 0 6.4 2
20:00 16 J/kg 1.0 K 0 % 0 % 0 % 0 m²/s² 0 0 3.37 2
21:00 81 J/kg -0.4 K 0 % 0 % 0 % 0 m²/s² 0 0 0.59 3
22:00 103 J/kg -0.6 K 0 % 0 % 0 % 0 m²/s² 0 0 1.71 3
23:00 47 J/kg 0.0 K 0 % 0 % 0 % 0 m²/s² 0 0 2.52 3
 07:32     16:50    Daglengte: 9:18 Dinsdag 03 Nov
00:00 26 J/kg 0.0 K 0 % 0 % 0 % 0 m²/s² 0 0 1.11 2
01:00 78 J/kg -0.1 K 0 % 0 % 0 % 0 m²/s² 0 0 0.77 2
02:00 0 J/kg 1.5 K 0 % 0 % 0 % 0 m²/s² 0 0 2.85 1
03:00 1 J/kg -0.3 K 0 % 0 % 0 % 0 m²/s² 0 0 0.33 2
04:00 54 J/kg 0.4 K 0 % 0 % 0 % 0 m²/s² 0 0 1.15 2
05:00 4 J/kg 1.5 K 0 % 0 % 0 % 0 m²/s² 0 0 2.43 2
Temp Baro Wind Neerslag
  EWN Forecast EWN WRFDA DWD ICON FMI HIRLAM MET Norway GFS
 07:27     16:56    Daglengte: 9:29 Vandaag
09:00 12.2° 990.1 hPa 12.6 m/s 9.3 mm 14.6° 986.0 hPa 16.3 m/s 23.3 mm 11.8° 990.0 hPa 10.6 m/s 7.5 mm 12.0° 990.8 hPa 14.1 m/s 0.0 mm 12.3° 990.4 hPa 10.9 m/s 12.2° 990.2 hPa 12.8 m/s
12:00 10.3° 995.7 hPa 11.7 m/s 0.0 mm 9.1° 993.0 hPa 10.6 m/s 34.7 mm 10.0° 994.8 hPa 13.5 m/s 0.0 mm 10.1° 998.3 hPa 11.7 m/s 0.0 mm 11.0° 996.4 hPa 10.3 m/s 9.5° 997.2 hPa 10.6 m/s
15:00 9.5° 1000.5 hPa 10.0 m/s 2.5 mm 9.6° 998.0 hPa 10.9 m/s 35.3 mm 9.4° 1000.4 hPa 11.1 m/s 0.0 mm 9.2° 1002.1 hPa 9.5 m/s 0.0 mm 10.3° 1000.8 hPa 8.1 m/s 9.4° 1001.3 hPa 8.5 m/s
18:00 8.0° 1003.0 hPa 7.0 m/s 0.0 mm 7.4° 1000.9 hPa 6.2 m/s 35.4 mm 7.7° 1003.8 hPa 8.4 m/s 0.0 mm 8.0° 1003.8 hPa 6.8 m/s 0.0 mm 8.5° 1002.3 hPa 6.1 m/s 6.5° 1002.7 hPa 6.3 m/s
21:00 7.7° 1002.0 hPa 6.1 m/s 0.0 mm 7.4° 1000.5 hPa 7.2 m/s 35.4 mm 6.6° 1004.2 hPa 5.5 m/s 0.0 mm 7.8° 1002.0 hPa 6.5 m/s 0.0 mm 8.5° 1000.9 hPa 5.6 m/s 7.0° 1002.2 hPa 6.5 m/s
 07:29     16:54    Daglengte: 9:25 Morgen
00:00 7.7° 996.8 hPa 9.2 m/s 3.9 mm 6.8° 995.5 hPa 11.0 m/s 41.1 mm 7.0° 1000.2 hPa 7.2 m/s 0.0 mm 8.2° 996.6 hPa 9.7 m/s 0.0 mm 7.8° 995.5 hPa 8.5 m/s 6.8° 995.6 hPa 9.3 m/s
03:00 10.4° 989.3 hPa 12.1 m/s 10.5 mm 10.6° 986.3 hPa 13.7 m/s 51.7 mm 8.9° 992.6 hPa 13.3 m/s 2.9 mm 10.7° 989.1 hPa 11.7 m/s 0.0 mm 10.9° 988.9 hPa 8.0 m/s 12.0° 988.1 hPa 9.8 m/s
06:00 10.4° 991.5 hPa 9.1 m/s 6.3 mm 7.5° 989.9 hPa 7.4 m/s 56.8 mm 12.1° 990.2 hPa 11.8 m/s 2.7 mm 10.7° 992.2 hPa 10.3 m/s 0.0 mm 9.4° 993.0 hPa 6.6 m/s 6.9° 992.9 hPa 6.2 m/s
09:00 9.2° 994.2 hPa 7.7 m/s 0.0 mm 8.5° 993.2 hPa 9.7 m/s 57.5 mm 8.6° 994.5 hPa 7.5 m/s 0.0 mm 9.6° 994.4 hPa 7.9 m/s 0.0 mm 9.9° 994.7 hPa 6.4 m/s 6.9° 996.3 hPa 7.5 m/s
12:00 11.0° 993.8 hPa 8.0 m/s 4.2 mm 10.5° 995.6 hPa 10.6 m/s 57.6 mm 8.9° 993.1 hPa 7.3 m/s 0.9 mm 10.9° 993.9 hPa 8.4 m/s 0.0 mm 11.5° 994.7 hPa 6.3 m/s 10.1° 997.1 hPa 8.3 m/s
15:00 10.7° 989.8 hPa 6.4 m/s 9.8 mm 10.3° 995.7 hPa 6.3 m/s 57.6 mm 9.9° 985.4 hPa 6.7 m/s 3.6 mm 10.7° 990.2 hPa 5.5 m/s 0.0 mm 10.8° 991.3 hPa 5.4 m/s 9.0° 996.0 hPa 8.2 m/s
18:00 10.9° 986.3 hPa 4.8 m/s 11.8 mm 9.3° 992.2 hPa 4.8 m/s 61.1 mm 9.5° 986.9 hPa 7.4 m/s 1.3 mm 11.1° 987.4 hPa 3.1 m/s 0.0 mm 10.8° 985.9 hPa 2.0 m/s 9.7° 989.8 hPa 5.0 m/s
21:00 10.7° 986.2 hPa 5.6 m/s 18.3 mm 14.9° 984.9 hPa 10.4 m/s 81.2 mm 8.1° 990.7 hPa 7.0 m/s 0.1 mm 10.6° 987.7 hPa 4.7 m/s 0.0 mm 10.4° 986.1 hPa 1.2 m/s 15.8° 985.7 hPa 11.1 m/s
 07:31     16:52    Daglengte: 9:21 Maandag 02 Nov
00:00 9.1° 987.0 hPa 5.4 m/s 23.5 mm 15.2° 982.5 hPa 11.8 m/s 103.9 mm 6.5° 993.9 hPa 6.8 m/s 0.0 mm 9.1° 989.9 hPa 5.3 m/s 0.0 mm 9.2° 986.1 hPa 2.4 m/s 15.7° 983.4 hPa 11.2 m/s
03:00 7.9° 988.4 hPa 6.6 m/s 15.2 mm 15.1° 977.3 hPa 13.5 m/s 107.4 mm 6.6° 996.7 hPa 6.4 m/s 0.0 mm 7.5° 988.0 hPa 3.8 m/s 15.1° 981.1 hPa 12.2 m/s
06:00 7.4° 991.5 hPa 6.4 m/s 7.3 mm 12.7° 974.9 hPa 11.7 m/s 108.9 mm 6.5° 998.7 hPa 7.0 m/s 0.0 mm 7.0° 991.8 hPa 4.7 m/s 12.1° 978.9 hPa 10.7 m/s
09:00 7.2° 995.1 hPa 5.8 m/s 0.0 mm 7.3° 984.7 hPa 8.9 m/s 126.7 mm 6.9° 1001.3 hPa 7.1 m/s 0.0 mm 7.7° 995.0 hPa 5.5 m/s 7.1° 983.3 hPa 8.6 m/s
12:00 9.0° 998.1 hPa 6.2 m/s 0.0 mm 8.1° 988.4 hPa 13.1 m/s 130.3 mm 8.1° 1003.4 hPa 8.6 m/s 0.1 mm 9.2° 998.0 hPa 5.3 m/s 8.6° 990.4 hPa 6.9 m/s
15:00 8.3° 1001.1 hPa 7.4 m/s 14.5 mm 8.2° 992.2 hPa 8.7 m/s 139.2 mm 7.6° 1006.1 hPa 8.6 m/s 0.5 mm 9.3° 1000.9 hPa 6.5 m/s 9.0° 995.5 hPa 7.3 m/s
18:00 6.6° 1005.7 hPa 7.0 m/s 10.2 mm 7.9° 997.7 hPa 7.0 m/s 141.9 mm 5.9° 1009.5 hPa 6.9 m/s 0.1 mm 6.6° 1005.7 hPa 7.1 m/s 7.0° 1001.3 hPa 5.7 m/s
21:00 5.3° 1009.3 hPa 5.7 m/s 0.0 mm 6.4° 1002.9 hPa 4.9 m/s 142.1 mm 5.0° 1011.9 hPa 6.2 m/s 0.0 mm 5.4° 1009.5 hPa 5.7 m/s 6.2° 1005.6 hPa 6.1 m/s
 07:32     16:50    Daglengte: 9:18 Dinsdag 03 Nov
00:00 4.4° 1012.4 hPa 5.3 m/s 0.0 mm 6.9° 1007.2 hPa 4.9 m/s 142.2 mm 4.6° 1013.0 hPa 7.4 m/s 0.0 mm 4.2° 1013.2 hPa 4.3 m/s 4.9° 1010.4 hPa 8.9 m/s
03:00 5.1° 1013.3 hPa 6.1 m/s 0.0 mm 6.4° 1011.4 hPa 7.9 m/s 142.3 mm 4.3° 1014.3 hPa 7.3 m/s 0.0 mm 5.1° 1013.4 hPa 4.8 m/s 4.8° 1013.2 hPa 5.5 m/s
06:00 5.5° 1014.4 hPa 5.6 m/s 0.0 mm 4.7° 1014.9 hPa 5.5 m/s 145.5 mm 5.1° 1016.0 hPa 7.1 m/s 0.0 mm 6.0° 1013.6 hPa 5.3 m/s 4.1° 1015.2 hPa 6.6 m/s
09:00 7.5° 1017.7 hPa 6.4 m/s 36.3 mm 7.7° 1017.7 hPa 6.4 m/s 6.3° 1017.8 hPa 6.0 m/s 36.3 mm
12:00 8.5° 1019.9 hPa 7.1 m/s 36.4 mm 8.5° 1019.8 hPa 7.0 m/s 8.1° 1020.5 hPa 7.8 m/s 36.4 mm
15:00 7.5° 1021.9 hPa 5.4 m/s 36.6 mm 7.5° 1021.9 hPa 5.3 m/s 7.9° 1020.8 hPa 6.0 m/s 36.6 mm
18:00 6.3° 1023.9 hPa 3.8 m/s 36.8 mm 6.4° 1024.1 hPa 3.7 m/s 5.7° 1021.5 hPa 5.2 m/s 36.8 mm
21:00 5.5° 1025.6 hPa 3.3 m/s 38.0 mm 5.6° 1025.8 hPa 3.2 m/s 5.0° 1022.8 hPa 4.4 m/s 38.0 mm
 07:34     16:48    Daglengte: 9:14 Woensdag 04 Nov
00:00 4.6° 1027.4 hPa 2.9 m/s 38.0 mm 4.7° 1027.6 hPa 2.8 m/s 3.6° 1025.0 hPa 3.9 m/s 38.0 mm
03:00 3.6° 1029.3 hPa 2.3 m/s 38.0 mm 3.7° 1029.6 hPa 2.3 m/s 2.4° 1026.3 hPa 2.7 m/s 38.0 mm
06:00 2.6° 1031.4 hPa 1.8 m/s 38.0 mm 2.7° 1031.6 hPa 1.8 m/s 2.1° 1028.7 hPa 2.3 m/s 38.0 mm
09:00 5.4° 1033.9 hPa 1.8 m/s 38.0 mm 5.6° 1034.2 hPa 1.9 m/s 3.6° 1030.5 hPa 1.8 m/s 38.0 mm
12:00 8.4° 1036.4 hPa 2.1 m/s 38.0 mm 8.4° 1036.8 hPa 1.9 m/s 8.4° 1031.9 hPa 3.8 m/s 38.0 mm
15:00 6.6° 1037.5 hPa 2.3 m/s 38.1 mm 6.4° 1037.9 hPa 2.1 m/s 8.5° 1032.2 hPa 3.4 m/s 38.1 mm
18:00 4.5° 1038.6 hPa 2.4 m/s 38.2 mm 4.4° 1039.1 hPa 2.4 m/s 5.7° 1033.7 hPa 2.0 m/s 38.2 mm
21:00 2.6° 1039.9 hPa 2.1 m/s 38.2 mm 2.5° 1040.3 hPa 2.2 m/s 3.5° 1034.9 hPa 1.0 m/s 38.2 mm
 07:36     16:46    Daglengte: 9:10 Donderdag 05 Nov
00:00 0.8° 1041.2 hPa 2.0 m/s 38.2 mm 0.6° 1041.6 hPa 2.1 m/s 2.9° 1036.3 hPa 1.2 m/s 38.2 mm
03:00 1.0° 1041.3 hPa 1.9 m/s 38.2 mm 0.9° 1041.8 hPa 2.0 m/s 2.2° 1036.5 hPa 0.6 m/s 38.2 mm
06:00 1.3° 1041.5 hPa 1.9 m/s 38.2 mm 1.2° 1041.9 hPa 2.0 m/s 2.0° 1036.8 hPa 1.0 m/s 38.2 mm
09:00 4.8° 1041.5 hPa 1.7 m/s 38.2 mm 4.9° 1041.8 hPa 1.9 m/s 4.0° 1037.7 hPa 0.5 m/s 38.2 mm
12:00 8.6° 1041.5 hPa 1.6 m/s 38.2 mm 8.6° 1041.8 hPa 1.7 m/s 8.1° 1037.8 hPa 0.6 m/s 38.2 mm
15:00 7.1° 1040.5 hPa 1.5 m/s 38.2 mm 6.9° 1040.9 hPa 1.5 m/s 8.8° 1036.7 hPa 1.0 m/s 38.2 mm
18:00 5.1° 1039.7 hPa 1.4 m/s 38.2 mm 5.2° 1040.0 hPa 1.4 m/s 4.3° 1036.1 hPa 0.9 m/s 38.2 mm
21:00 3.0° 1038.8 hPa 1.4 m/s 38.2 mm 3.0° 1039.1 hPa 1.4 m/s 3.8° 1036.1 hPa 1.4 m/s 38.2 mm
 07:38     16:44    Daglengte: 9:06 Vrijdag 06 Nov
00:00 0.9° 1038.0 hPa 1.3 m/s 38.2 mm 0.7° 1038.2 hPa 1.3 m/s 3.5° 1035.6 hPa 1.5 m/s 38.2 mm
03:00 0.4° 1036.4 hPa 1.5 m/s 38.2 mm 0.1° 1036.7 hPa 1.6 m/s 3.5° 1033.8 hPa 1.3 m/s 38.2 mm
06:00 -0.2° 1034.9 hPa 1.8 m/s 38.2 mm -0.5° 1035.1 hPa 1.8 m/s 3.0° 1033.0 hPa 1.4 m/s 38.2 mm
09:00 4.7° 1033.7 hPa 1.4 m/s 38.2 mm 4.8° 1033.8 hPa 1.5 m/s 4.4° 1032.5 hPa 0.9 m/s 38.2 mm
12:00 9.9° 1032.4 hPa 1.1 m/s 38.2 mm 10.0° 1032.6 hPa 1.1 m/s 8.7° 1030.7 hPa 1.5 m/s 38.2 mm
15:00 6.9° 1030.4 hPa 1.8 m/s 38.2 mm 6.7° 1030.7 hPa 1.8 m/s 9.0° 1028.0 hPa 1.5 m/s 38.2 mm
18:00 3.5° 1028.6 hPa 2.5 m/s 38.2 mm 3.4° 1028.7 hPa 2.5 m/s 4.1° 1027.4 hPa 2.1 m/s 38.2 mm
21:00 2.3° 1027.5 hPa 2.5 m/s 38.2 mm 2.2° 1027.7 hPa 2.5 m/s 3.3° 1026.4 hPa 2.0 m/s 38.2 mm
 07:40     16:43    Daglengte: 9:03 Zaterdag 07 Nov
00:00 1.2° 1026.5 hPa 2.4 m/s 38.2 mm 1.0° 1026.6 hPa 2.5 m/s 3.1° 1025.6 hPa 1.6 m/s 38.2 mm
03:00 1.6° 1025.5 hPa 2.4 m/s 38.2 mm 1.5° 1025.6 hPa 2.5 m/s 2.9° 1024.2 hPa 1.6 m/s 38.2 mm
06:00 2.0° 1024.5 hPa 2.3 m/s 38.2 mm 2.0° 1024.6 hPa 2.4 m/s 2.5° 1023.3 hPa 1.7 m/s 38.2 mm
12:00 9.5° 1023.3 hPa 1.9 m/s 38.2 mm 9.5° 1023.4 hPa 1.7 m/s 9.2° 1022.2 hPa 4.0 m/s 38.2 mm
18:00 7.8° 1021.4 hPa 2.2 m/s 38.2 mm 8.0° 1021.5 hPa 2.0 m/s 5.7° 1020.5 hPa 4.6 m/s 38.2 mm
 07:42     16:41    Daglengte: 8:59 Zondag 08 Nov
00:00 7.8° 1020.8 hPa 1.8 m/s 38.2 mm 7.9° 1020.9 hPa 1.6 m/s 6.3° 1019.1 hPa 3.9 m/s 38.2 mm
06:00 10.3° 1019.4 hPa 3.2 m/s 38.2 mm 10.7° 1019.6 hPa 3.1 m/s 6.3° 1017.8 hPa 4.1 m/s 38.2 mm
12:00 13.0° 1021.3 hPa 3.2 m/s 38.2 mm 13.3° 1021.6 hPa 3.1 m/s 9.2° 1018.1 hPa 4.6 m/s 38.2 mm
18:00 10.6° 1022.1 hPa 1.2 m/s 38.2 mm 10.9° 1022.5 hPa 1.1 m/s 7.2° 1018.0 hPa 2.4 m/s 38.2 mm
 07:44     16:39    Daglengte: 8:55 Maandag 09 Nov
00:00 9.0° 1023.8 hPa 1.3 m/s 38.3 mm 9.4° 1024.2 hPa 1.3 m/s 4.7° 1018.9 hPa 1.4 m/s 38.3 mm
06:00 7.4° 1025.1 hPa 2.0 m/s 38.3 mm 7.7° 1025.6 hPa 2.0 m/s 3.6° 1019.9 hPa 1.7 m/s 38.3 mm
12:00 8.8° 1022.5 hPa 1.8 m/s 38.3 mm 8.8° 1022.5 hPa 1.8 m/s 38.3 mm
18:00 5.1° 1024.1 hPa 0.8 m/s 38.3 mm 5.1° 1024.1 hPa 0.8 m/s 38.3 mm
 07:46     16:38    Daglengte: 8:52 Dinsdag 10 Nov
00:00 3.0° 1026.8 hPa 0.2 m/s 38.3 mm 3.0° 1026.8 hPa 0.2 m/s 38.3 mm
06:00 7.4° 1015.3 hPa 1.5 m/s 0.7 mm
12:00 9.3° 1016.0 hPa 2.0 m/s 0.7 mm
18:00 7.3° 1015.8 hPa 2.0 m/s 0.3 mm
 07:48     16:36    Daglengte: 8:48 Woensdag 11 Nov
00:00 6.8° 1016.0 hPa 2.3 m/s 0.4 mm
06:00 7.1° 1014.7 hPa 2.6 m/s 0.3 mm
12:00 9.2° 1014.7 hPa 3.4 m/s 0.4 mm
18:00 7.5° 1014.6 hPa 2.5 m/s 0.8 mm
 07:49     16:34    Daglengte: 8:45 Donderdag 12 Nov
00:00 6.6° 1015.3 hPa 2.6 m/s 0.5 mm
06:00 6.7° 1014.6 hPa 2.8 m/s 0.4 mm
12:00 9.0° 1015.1 hPa 2.9 m/s 0.7 mm
18:00 6.9° 1015.2 hPa 2.3 m/s 0.5 mm
 07:51     16:33    Daglengte: 8:42 Vrijdag 13 Nov
00:00 6.0° 1015.8 hPa 2.0 m/s 0.5 mm
06:00 5.5° 1015.9 hPa 2.1 m/s 0.8 mm
12:00 8.5° 1016.8 hPa 2.3 m/s 0.3 mm
18:00 6.8° 1016.2 hPa 2.2 m/s 0.6 mm
 07:53     16:31    Daglengte: 8:38 Zaterdag 14 Nov
00:00 6.2° 1016.3 hPa 2.1 m/s 0.4 mm
06:00 6.1° 1015.7 hPa 1.5 m/s 0.4 mm
12:00 8.6° 1015.9 hPa 1.8 m/s 0.3 mm
18:00 7.1° 1015.6 hPa 1.1 m/s 0.8 mm
 07:55     16:30    Daglengte: 8:35 Zondag 15 Nov
00:00 5.7° 1016.2 hPa 1.2 m/s 0.8 mm
06:00 5.3° 1016.2 hPa 1.0 m/s 0.3 mm
FMI Hirlam - 7.5 km EWN WRFDA - 12 km DWD ICON - 7 km GFS - 25 km Basiskaart






























































Updatetijd (Europe/Amsterdam) Resolutie Lengte Stap
FMI Hirlam 06:00, 12:00, 18:00, 00:00 7.5 km 49h 1h
EWN WRFDA 03:15, 09:15, 15:15, 21:15 12 km 73h 1h
DWD ICON 05:15, 11:15, 17:15, 23:15 7 km 75h 1h
GFS 07:00, 13:00, 19:00, 01:00 25 km 237h 3h
30+ mm
25-30 mm
20-25 mm
15-20 mm
10-15 mm
6-10 mm
4-6 mm
2-4 mm
1-2 mm
0.5-1 mm
0.2-0.5 mm
0.1-0.2 mm
30+ mm
25-30 mm
20-25 mm
15-20 mm
10-15 mm
6-10 mm
4-6 mm
2-4 mm
1-2 mm
0.5-1 mm
0.2-0.5 mm
0.1-0.2 mm
Sneeuwval
Natte sneeuw
Hagel
Vorst
30+ mm
25-30 mm
20-25 mm
15-20 mm
10-15 mm
6-10 mm
4-6 mm
2-4 mm
1-2 mm
0.5-1 mm
0.2-0.5 mm
0.1-0.2 mm
Sneeuwval
Natte sneeuw
Hagel
Vorst
Onweer
50 mm
40 mm
30 mm
26 mm
22 mm
18 mm
14 mm
10 mm
9 mm
8 mm
7 mm
6 mm
5 mm
4.5 mm
4 mm
3.5 mm
3 mm
2.5 mm
2 mm
1.5 mm
1 mm
0.8 mm
0.6 mm
0.4 mm
0.2 mm
0.05 mm
35°
30°
25°
20°
15°
10°
-5°
-10°
-15°
-20°
-25°
-30°
-35°
33> m/s
29 m/s
25 m/s
21 m/s
17 m/s
14 m/s
11 m/s
8 m/s
5 m/s
3 m/s
0 m/s
2600 J/kg
2400 J/kg
2200 J/kg
2000 J/kg
1800 J/kg
1600 J/kg
1400 J/kg
1200 J/kg
1000 J/kg
800 J/kg
600 J/kg
400 J/kg
200 J/kg
70 dBZ
65 dBZ
60 dBZ
55 dBZ
50 dBZ
45 dBZ
40 dBZ
35 dBZ
30 dBZ
25 dBZ
20 dBZ
15 dBZ
10 dBZ
5 dBZ
-1 K
-2 K
-3 K
-4 K
-5 K
-6 K
-7 K
-8 K
-9 K
950 m²/s²
900 m²/s²
850 m²/s²
800 m²/s²
750 m²/s²
700 m²/s²
650 m²/s²
600 m²/s²
550 m²/s²
500 m²/s²
450 m²/s²
400 m²/s²
350 m²/s²
300 m²/s²
250 m²/s²
200 m²/s²
150 m²/s²
100 m²/s²
46 m/s
44 m/s
42 m/s
40 m/s
38 m/s
36 m/s
34 m/s
32 m/s
30 m/s
28 m/s
26 m/s
24 m/s
22 m/s
20 m/s
16 m/s
12 m/s
8 m/s
4 m/s
30 m/s
28 m/s
26 m/s
24 m/s
22 m/s
20 m/s
18 m/s
16 m/s
14 m/s
12 m/s
10 m/s
8 m/s
6 m/s
4 m/s
2 m/s
3.0
2.8
2.6
2.4
2.2
2.0
1.8
1.6
1.4
1.2
1.0
0.8
0.6
0.4
0.2
15
14
13
12
11
10
9
8
7
6
5
4
3
2
1
90%
80%
70%
60%
50%
40%
30%
20%
10%
42
40
38
36
34
32
30
28
26
24
22
20
18
16
14
12
90+ cm
80-90 cm
70-80 cm
60-70 cm
50-60 cm
40-50 cm
30-40 cm
20-30 cm
10-20 cm
1-10 cm
Sneeuwval
Natte sneeuw
Regen
>120 mm
115 mm
110 mm
105 mm
100 mm
95 mm
90 mm
85 mm
80 mm
75 mm
70 mm
65 mm
60 mm
55 mm
50 mm
45 mm
45 mm
40 mm
35 mm
30 mm
25 mm
20 mm
15 mm
10 mm
5 mm
0.1 mm
960 hPa
880 hPa
800 hPa
720 hPa
640 hPa
560 hPa
584 gpdm
568 gpdm
552 gpdm
536 gpdm
520 gpdm
504 gpdm
488 gpdm
Extreem zwaar Noodweer Kans op onweer
15% 15% 5% 50% 15%

Dag




Kaart






35°
30°
25°
20°
15°
10°
-5°
-10°
-15°
-20°
-25°
-30°
-35°
33> m/s
29 m/s
25 m/s
21 m/s
17 m/s
14 m/s
11 m/s
8 m/s
5 m/s
3 m/s
0 m/s
Extreem zwaar Noodweer Kans op onweer
15% 15% 5% 50% 15%